Overview Statistics Trail Chart Weather Telemetry Raw packets
 

This is the latest recevied weather packets stored in our database for station/object OK5TVR-5. If no packets are shown the sender has not sent any weather packets the latest 10 day(s).

<< 3 4 5 6 7 8 9 >>
Time Temp. Humidity Pressure Rain* Wind** Luminosity Snow
1788562341 21.67° C 61% 1006.3 hPa 0 mm - 0 W/m² -
1788561441 21.11° C 64% 1006 hPa 0 mm - 0 W/m² -
1788560541 20.56° C 63% 1005.7 hPa 0 mm - 0 W/m² -
1788559641 21.11° C 63% 1005.5 hPa 0 mm - 0 W/m² -
1788558741 21.11° C 63% 1005.2 hPa 0 mm - 0 W/m² -
1788557841 20.56° C 63% 1005.1 hPa 0 mm - 0 W/m² -
1788556941 20.56° C 63% 1004.9 hPa 0 mm - 0 W/m² -
1788556041 21.11° C 62% 1004.7 hPa 0 mm - 0 W/m² -
1788555141 21.67° C 61% 1004.7 hPa 0 mm - 0 W/m² -
1788554241 21.67° C 61% 1004.6 hPa 0 mm - 0 W/m² -
1788553341 21.11° C 62% 1004.6 hPa 0 mm - 0 W/m² -
1788552441 21.67° C 61% 1004.6 hPa 0 mm - 0 W/m² -
1788551541 21.67° C 61% 1004.7 hPa 0 mm - 0 W/m² -
1788550641 22.22° C 59% 1004.7 hPa 0 mm - 0 W/m² -
1788549741 22.22° C 58% 1004.7 hPa 0 mm - 0 W/m² -
1788548841 22.78° C 57% 1004.6 hPa 0 mm - 0 W/m² -
1788547941 22.78° C 56% 1004.5 hPa 0 mm - 0 W/m² -
1788547041 23.33° C 55% 1004.4 hPa 0 mm - 0 W/m² -
1788546163 24.44° C 53% 1004.2 hPa 0 mm - 0 W/m² -
1788545241 25° C 50% 1004.2 hPa 0 mm - 0 W/m² -
1788544341 25.56° C 48% 1004.2 hPa 0 mm - 1 W/m² -
1788543441 26.11° C 47% 1004 hPa 0 mm - 3 W/m² -
1788542541 26.67° C 45% 1004 hPa 0 mm - 6 W/m² -
1788541641 26.67° C 44% 1004.1 hPa 0 mm - 11 W/m² -
1788540741 27.22° C 43% 1004 hPa 0 mm - 13 W/m² -

* Rain latest hour (hover to see other rain measurements)
** Current wind speed in m/s (hover to see current wind gust speed)